Tracking 19717 objects as of 24-Jun-2019
HD Live streaming from Space Station
objects crossing your sky now

COSMOS 1455

Track COSMOS 1455 now!
10-day predictions
COSMOS 1455 is classified as:


NORAD ID: 14032
Int'l Code: 1983-037A
Perigee: 508.3 km
Apogee: 529.9 km
Inclination: 82.5 °
Period: 94.9 minutes
Semi major axis: 6890 km
RCS: 6.2678 m2 (large)
Launch date: April 23, 1983
Source: Commonwealth of Independent States (former USSR) (CIS)
Launch site: PLESETSK MISSILE AND SPACE COMPLEX (PKMTR)
aabbcc
Your satellite tracking list
Your tracking list is empty




NASA's NSSDC Master Catalog

Two Line Element Set (TLE):
1 14032U 83037A   19175.14022263  .00000483  00000-0  22085-4 0  9990
2 14032  82.5169  79.0200 0015668 235.0888 124.8874 15.17969943973143
Source of the keplerian elements: AFSPC